GW2827 Weather Reports


time (UTC)temp
C
wind
direction
speed
KPH
gust
KPH
rain 1hr
cm
rain 24hr
cm
rain mn
cm
humidity
%
barometer
mb
20260507160055 3 128 0.0 3.2 0.00 0.84 0.03 84 1017.1
20260507154605 3 128 3.2 8.0 0.00 0.84 0.03 84 1017.2
20260507153052 3 128 4.8 12.9 0.00 0.84 0.03 84 1017.1
20260507151554 2 128 3.2 8.0 0.00 0.84 0.03 84 1017.3
20260507150057 2 128 3.2 12.9 0.00 0.84 0.03 84 1017.2
20260507144559 2 128 6.4 14.5 0.00 0.84 0.03 84 1017.1
20260507143110 2 128 1.6 4.8 0.00 0.84 0.03 84 1017.3
20260507141601 2 0 0.0 3.2 0.00 0.84 0.03 84 1017.3
20260507140057 2 128 0.0 11.3 0.00 0.84 0.03 84 1017.2
20260507134559 2 128 1.6 8.0 0.00 0.84 0.03 84 1017.2
20260507133057 3 0 0.0 16.1 0.00 0.84 0.03 84 1017.4
20260507131612 3 128 4.8 14.5 0.00 0.84 0.03 84 1017.3
20260507130057 3 128 3.2 9.7 0.00 0.84 0.03 85 1017.1
20260507124558 3 128 3.2 8.0 0.03 0.84 0.03 85 1017.1
20260507123053 3 128 3.2 11.3 0.03 0.84 0.03 85 1017.1
20260507121557 3 129 6.4 12.9 0.03 0.84 0.03 85 1017.2
20260507120056 3 129 3.2 9.7 0.03 0.84 0.03 85 1017.1
20260507114556 3 129 1.6 8.0 0.00 0.81 0.00 85 1017.2
20260507113101 3 129 6.4 22.5 0.00 0.81 0.00 85 1017.3
20260507111554 3 127 12.9 25.7 0.00 0.81 0.00 85 1017.2
20260507104553 3 128 4.8 14.5 0.00 0.81 0.00 85 1017.1
20260507103054 3 128 4.8 19.3 0.00 0.81 0.00 84 1017.1
20260507101558 3 127 6.4 16.1 0.00 0.81 0.00 84 1017.1
20260507100056 2 127 1.6 9.7 0.00 0.81 0.00 84 1017.0
20260507094553 2 127 3.2 14.5 0.00 0.81 0.00 84 1017.0
20260507093056 3 127 4.8 11.3 0.00 0.81 0.00 84 1016.9
20260507091555 2 127 4.8 9.7 0.00 0.81 0.00 84 1016.8
20260507090054 2 127 1.6 8.0 0.00 0.81 0.00 83 1016.7
20260507084553 3 127 6.4 14.5 0.00 0.81 0.00 83 1016.8
20260507083053 3 127 8.0 14.5 0.08 0.81 0.00 83 1016.6
20260507081556 3 127 8.0 19.3 0.10 0.81 0.00 83 1016.4
20260507080113 3 128 4.8 12.9 0.13 0.81 0.00 82 1016.3
20260507074555 3 128 3.2 9.7 0.18 0.81 0.81 82 1015.9
20260507073054 3 128 6.4 12.9 0.13 0.74 0.74 81 1016.0
20260507071609 3 128 1.6 3.2 0.18 0.71 0.71 81 1015.9
20260507070056 3 128 0.0 6.4 0.20 0.69 0.69 81 1015.9
20260507064554 3 128 1.6 6.4 0.18 0.64 0.64 80 1015.8
20260507063058 3 0 0.0 1.6 0.18 0.61 0.61 80 1015.7
20260507061559 3 0 0.0 4.8 0.13 0.53 0.53 79 1015.6
20260507060054 3 0 0.0 1.6 0.10 0.48 0.48 78 1015.3
20260507054556 3 0 0.0 0.0 0.10 0.46 0.46 78 1015.2
20260507053121 3 0 0.0 0.0 0.10 0.43 0.43 77 1015.1
20260507051601 3 0 0.0 0.0 0.10 0.41 0.41 77 1015.0
20260507050100 3 0 0.0 1.6 0.18 0.38 0.38 76 1015.0
20260507044557 3 0 0.0 4.8 0.23 0.36 0.36 76 1015.0
20260507043057 3 128 0.0 4.8 0.23 0.33 0.33 76 1015.0
20260507041558 3 128 4.8 9.7 0.20 0.30 0.30 75 1015.2
20260507034556 4 128 9.7 30.6 0.05 0.13 0.13 75 1014.9
20260507033103 5 128 0.0 3.2 0.08 0.10 0.10 74 1014.3
20260507031558 6 128 0.0 3.2 0.10 0.10 0.10 74 1014.1
20260507030057 6 128 0.0 6.4 0.10 0.10 0.10 74 1014.0
20260507024601 5 128 0.0 6.4 0.08 0.08 0.08 74 1014.1
20260507023056 6 128 3.2 8.0 0.03 0.03 0.03 74 1013.9
20260507021557 6 128 6.4 11.3 0.00 0.00 0.00 74 1013.7
20260507020100 7 0 0.0 1.6 0.00 0.00 0.00 74 1013.6
20260507014603 6 128 0.0 1.6 0.00 0.00 0.00 73 1013.5
20260507013056 6 0 0.0 3.2 0.00 0.00 0.00 73 1013.5
20260507011558 6 128 4.8 12.9 0.00 0.00 0.00 73 1013.7
20260507010103 6 128 8.0 17.7 0.00 0.00 0.00 73 1013.7
20260507004611 7 128 1.6 6.4 0.00 0.00 0.00 73 1013.6
20260507003059 7 128 1.6 9.7 0.00 0.00 0.00 72 1013.5
20260507001556 6 127 3.2 6.4 0.00 0.00 0.00 72 1013.5
20260507000056 7 127 1.6 6.4 0.00 0.00 0.00 72 1013.5
20260506234557 6 127 3.2 8.0 0.00 0.00 0.00 72 1013.3
20260506233058 7 127 1.6 6.4 0.00 0.00 0.00 72 1013.4
20260506231553 7 127 3.2 9.7 0.00 0.00 0.00 72 1013.1
20260506230104 7 127 3.2 12.9 0.00 0.00 0.00 72 1013.1
20260506224552 7 127 4.8 17.7 0.00 0.00 0.00 72 1013.0
20260506223058 6 127 6.4 20.9 0.00 0.00 0.00 72 1012.9
20260506221557 6 127 6.4 17.7 0.00 0.00 0.00 73 1012.7
20260506220057 6 127 4.8 24.1 0.00 0.00 0.00 73 1012.8
20260506214603 8 127 9.7 19.3 0.00 0.00 0.00 73 1012.7
20260506213055 8 127 6.4 9.7 0.00 0.00 0.00 74 1012.4
20260506211600 8 127 3.2 8.0 0.00 0.00 0.00 74 1012.3
20260506210058 8 127 1.6 4.8 0.00 0.00 0.00 74 1012.2
20260506204559 8 127 1.6 8.0 0.00 0.00 0.00 75 1012.0
20260506203053 9 127 1.6 4.8 0.00 0.00 0.00 75 1011.9
20260506201556 8 127 1.6 6.4 0.00 0.00 0.00 75 1011.6
20260506200104 8 127 1.6 3.2 0.00 0.00 0.00 76 1011.6
20260506194605 8 127 1.6 4.8 0.00 0.00 0.00 76 1011.5
20260506193059 7 127 1.6 6.4 0.00 0.00 0.00 76 1011.5
20260506191606 7 127 1.6 6.4 0.00 0.00 0.00 76 1011.6
20260506190054 7 127 3.2 6.4 0.00 0.00 0.00 76 1011.6
20260506184601 7 127 1.6 4.8 0.00 0.00 0.00 76 1011.6
20260506183106 6 127 3.2 4.8 0.00 0.00 0.00 76 1011.5
20260506181604 6 0 1.6 4.8 0.00 0.00 0.00 76 1011.4
20260506180116 6 0 0.0 1.6 0.00 0.00 0.00 76 1011.3
20260506174559 5 0 0.0 3.2 0.00 0.00 0.00 75 1011.2
20260506173135 5 127 0.0 1.6 0.00 0.00 0.00 75 1011.2
20260506171603 5 128 0.0 1.6 0.00 0.00 0.00 75 1011.1
20260506170100 5 127 0.0 1.6 0.00 0.00 0.00 74 1011.0
20260506164553 5 0 0.0 1.6 0.00 0.00 0.00 74 1010.9
20260506163106 4 0 0.0 1.6 0.00 0.00 0.00 74 1010.8
20260506161558 3 0 0.0 1.6 0.00 0.00 0.00 73 1010.7